カタリナ彗星

C/2007 M2 ( Catalina )

English version
Home page
Total 6,336 html files since Dec. 4, 1995
Updated on April 6, 2008

---------------------------------------------------------------------

・ プロフィール

発見日 2007年6月20日
発見光度 20.4等
発見者 Catalina Sky Survey

・ 写真集

・ 軌道要素

Epoch 2008 Nov. 30.0 TT = JDT 2454800.5
T 2008 Dec. 8.59097 TT                                  MPC
q   3.5409000            (2000.0)            P               Q
z  +0.0002606      Peri.  220.67394     -0.76243487     +0.64537132
 +/-0.0000365      Node   357.28457     +0.19506262     +0.16029896
e   0.9990772      Incl.   80.95222     -0.61696324     -0.74686016

・ 星図

・ 光度変化

        m1 = 7.5 + 5 logΔ + 10.0 log r

---------------------------------------------------------------------

軌道要素はM.P.E.C. 2007-W68に掲載されたものです。
星図は StellaNavigator Ver.2.0 for Windows (アストロアーツ 編著 / アスキー出版局刊) で作成したものです。
光度グラフはComet for Windowsで作成したものです。

---------------------------------------------------------------------

Copyright(C) 1995-2008 Seiichi Yoshida (comet@aerith.net). All rights reserved.